GW0529 Weather Reports


time (UTC)temp
C
wind
direction
speed
KPH
gust
KPH
rain 1hr
cm
rain 24hr
cm
rain mn
cm
humidity
%
barometer
mb
20260507030136 19 186 4.8 12.9 0.00 0.00 0.00 66 1019.4
20260507025633 19 187 3.2 6.4 0.00 0.00 0.00 65 1019.3
20260507025130 19 182 3.2 4.8 0.00 0.00 0.00 65 1019.3
20260507024628 20 212 6.4 11.3 0.00 0.00 0.00 64 1019.1
20260507024125 20 191 6.4 11.3 0.00 0.00 0.00 64 1019.1
20260507023620 20 233 6.4 12.9 0.00 0.00 0.00 63 1019.0
20260507023118 20 238 6.4 12.9 0.00 0.00 0.00 63 1019.1
20260507022615 20 228 4.8 9.7 0.00 0.00 0.00 62 1018.8
20260507022110 20 230 6.4 9.7 0.00 0.00 0.00 62 1018.8
20260507021607 20 214 3.2 4.8 0.00 0.00 0.00 61 1019.0
20260507021103 21 176 3.2 4.8 0.00 0.00 0.00 61 1018.7
20260507020601 21 179 3.2 14.5 0.00 0.00 0.00 60 1018.7
20260507020057 21 185 6.4 14.5 0.00 0.00 0.00 59 1018.7
20260507015556 21 220 6.4 9.7 0.00 0.00 0.00 59 1018.8
20260507015053 21 163 4.8 17.7 0.00 0.00 0.00 59 1018.7
20260507014549 21 162 3.2 12.9 0.00 0.00 0.00 58 1018.5
20260507014044 21 188 3.2 9.7 0.00 0.00 0.00 57 1018.6
20260507013541 21 169 6.4 16.1 0.00 0.00 0.00 57 1018.6
20260507013039 22 214 8.0 16.1 0.00 0.00 0.00 57 1018.5
20260507012536 22 192 4.8 12.9 0.00 0.00 0.00 56 1018.4
20260507012032 22 154 3.2 11.3 0.00 0.00 0.00 55 1018.4
20260507011530 22 209 6.4 12.9 0.00 0.00 0.00 56 1018.5
20260507011026 22 201 6.4 16.1 0.00 0.00 0.00 56 1018.2
20260507010520 22 237 9.7 22.5 0.00 0.00 0.00 56 1018.3
20260507010017 22 213 9.7 16.1 0.00 0.00 0.00 55 1018.2
20260507005514 22 277 4.8 16.1 0.00 0.00 0.00 55 1018.2
20260507005011 22 178 8.0 14.5 0.00 0.00 0.00 54 1018.2
20260507004508 23 191 6.4 11.3 0.00 0.00 0.00 53 1018.2
20260507004006 23 180 8.0 12.9 0.00 0.00 0.00 53 1018.1
20260507003500 23 197 3.2 9.7 0.00 0.00 0.00 53 1018.1
20260507002955 23 212 4.8 14.5 0.00 0.00 0.00 52 1018.0
20260507002452 23 195 6.4 12.9 0.00 0.00 0.00 52 1018.1
20260507001949 23 170 8.0 14.5 0.00 0.00 0.00 52 1018.0
20260507001446 23 223 11.3 14.5 0.00 0.00 0.00 52 1017.8
20260507000943 23 202 6.4 14.5 0.00 0.00 0.00 51 1018.0
20260507000439 23 242 4.8 12.9 0.00 0.00 0.00 52 1017.9
20260506235934 23 214 11.3 14.5 0.00 0.00 0.00 51 1018.0
20260506235433 24 294 9.7 12.9 0.00 0.00 0.00 51 1017.8
20260506234932 24 271 11.3 12.9 0.00 0.00 0.00 50 1018.0
20260506234431 24 264 14.5 16.1 0.00 0.00 0.00 50 1017.9
20260506233928 24 160 4.8 16.1 0.00 0.00 0.00 50 1017.8
20260506233425 24 189 6.4 14.5 0.00 0.00 0.00 48 1018.1
20260506232921 24 177 4.8 16.1 0.00 0.00 0.00 47 1017.8
20260506232418 24 253 6.4 11.3 0.00 0.00 0.00 47 1017.9
20260506231913 24 167 3.2 12.9 0.00 0.00 0.00 48 1017.8
20260506231411 24 242 9.7 17.7 0.00 0.00 0.00 47 1018.1
20260506230909 24 236 4.8 12.9 0.00 0.00 0.00 48 1018.1
20260506230405 24 157 8.0 12.9 0.00 0.00 0.00 47 1018.1
20260506225901 23 177 6.4 16.1 0.00 0.00 0.00 47 1018.1
20260506225359 24 184 6.4 16.1 0.00 0.00 0.00 47 1018.2
20260506224855 23 191 9.7 12.9 0.00 0.00 0.00 47 1018.2
20260506224353 24 211 8.0 16.1 0.00 0.00 0.00 47 1018.3
20260506223849 25 160 6.4 11.3 0.00 0.00 0.00 47 1018.4
20260506223344 23 166 1.6 12.9 0.00 0.00 0.00 48 1018.4
20260506222842 24 319 8.0 11.3 0.00 0.00 0.00 47 1018.6
20260506222337 23 234 11.3 14.5 0.00 0.00 0.00 47 1018.6
20260506221835 23 196 9.7 14.5 0.00 0.00 0.00 49 1018.6
20260506221332 24 201 16.1 17.7 0.00 0.00 0.00 47 1018.7
20260506220830 24 247 11.3 17.7 0.00 0.00 0.00 48 1018.6
20260506220325 24 260 9.7 12.9 0.00 0.00 0.00 47 1018.9
20260506215822 23 179 3.2 9.7 0.00 0.00 0.00 48 1018.8
20260506215318 23 236 4.8 6.4 0.00 0.00 0.00 50 1018.8
20260506214814 23 210 4.8 6.4 0.00 0.00 0.00 50 1018.6
20260506214311 23 188 4.8 12.9 0.00 0.00 0.00 50 1019.0
20260506213810 23 198 8.0 16.1 0.00 0.00 0.00 49 1019.0
20260506213306 23 160 1.6 9.7 0.00 0.00 0.00 50 1018.9
20260506212803 23 239 4.8 9.7 0.00 0.00 0.00 49 1019.4
20260506212259 23 229 12.9 16.1 0.00 0.00 0.00 49 1019.1
20260506211754 23 233 8.0 9.7 0.00 0.00 0.00 49 1019.4
20260506211251 23 319 4.8 9.7 0.00 0.00 0.00 48 1019.2
20260506210748 23 165 1.6 11.3 0.00 0.00 0.00 49 1019.4
20260506210245 23 194 4.8 6.4 0.00 0.00 0.00 48 1019.7
20260506205742 22 215 4.8 16.1 0.00 0.00 0.00 50 1019.4
20260506205237 22 198 4.8 6.4 0.00 0.00 0.00 50 1019.6
20260506204735 22 205 6.4 17.7 0.00 0.00 0.00 50 1019.7
20260506204232 22 219 4.8 12.9 0.00 0.00 0.00 49 1020.0
20260506203730 23 199 3.2 12.9 0.00 0.00 0.00 49 1019.9
20260506203226 23 142 6.4 9.7 0.00 0.00 0.00 47 1019.8
20260506202724 22 171 1.6 9.7 0.00 0.00 0.00 51 1020.0
20260506202221 22 193 4.8 11.3 0.00 0.00 0.00 52 1020.1
20260506201717 22 206 8.0 11.3 0.00 0.00 0.00 50 1019.8
20260506201214 21 233 9.7 11.3 0.00 0.00 0.00 52 1020.0
20260506200711 21 182 3.2 11.3 0.00 0.00 0.00 51 1020.0
20260506200208 21 181 1.6 1.6 0.00 0.00 0.00 52 1020.3
20260506195705 21 150 6.4 11.3 0.00 0.00 0.00 50 1020.0
20260506195201 22 231 6.4 9.7 0.00 0.00 0.00 49 1020.5
20260506194658 21 94 1.6 6.4 0.00 0.00 0.00 51 1020.3
20260506194154 21 178 6.4 11.3 0.00 0.00 0.00 52 1020.4
20260506193652 21 283 8.0 11.3 0.00 0.00 0.00 50 1020.5
20260506193149 21 174 4.8 6.4 0.00 0.00 0.00 49 1020.7
20260506192646 21 221 3.2 4.8 0.00 0.00 0.00 50 1020.9
20260506192142 20 129 3.2 4.8 0.00 0.00 0.00 51 1020.9
20260506191639 20 222 1.6 4.8 0.00 0.00 0.00 52 1021.0
20260506191135 21 193 3.2 9.7 0.00 0.00 0.00 50 1020.6
20260506190632 20 155 1.6 3.2 0.00 0.00 0.00 51 1021.0
20260506190129 20 155 1.6 4.8 0.00 0.00 0.00 52 1021.1
20260506185626 19 157 0.0 9.7 0.00 0.00 0.00 53 1021.1
20260506185122 20 149 3.2 6.4 0.00 0.00 0.00 53 1021.1
20260506184620 20 166 3.2 4.8 0.00 0.00 0.00 52 1021.4
20260506184117 19 181 3.2 9.7 0.00 0.00 0.00 55 1021.2
20260506183614 19 104 1.6 1.6 0.00 0.00 0.00 53 1021.4
20260506183109 19 196 4.8 4.8 0.00 0.00 0.00 54 1021.7
20260506182608 18 150 0.0 4.8 0.00 0.00 0.00 55 1021.4
20260506182104 18 160 4.8 6.4 0.00 0.00 0.00 55 1021.5
20260506181602 18 166 6.4 11.3 0.00 0.00 0.00 55 1021.4
20260506181059 18 162 1.6 3.2 0.00 0.00 0.00 58 1021.4
20260506180555 18 147 0.0 9.7 0.00 0.00 0.00 58 1021.5
20260506180052 18 167 1.6 3.2 0.00 0.00 0.00 56 1021.4
20260506175548 18 159 4.8 4.8 0.00 0.00 0.00 57 1021.5
20260506175045 18 165 0.0 4.8 0.00 0.00 0.00 59 1021.4
20260506174544 18 211 4.8 9.7 0.00 0.00 0.00 59 1021.4
20260506174039 18 177 1.6 1.6 0.00 0.00 0.00 58 1021.5
20260506173537 17 162 0.0 3.2 0.00 0.00 0.00 61 1021.5
20260506173033 17 198 4.8 9.7 0.00 0.00 0.00 61 1021.5
20260506172531 17 153 1.6 11.3 0.00 0.00 0.00 61 1021.7
20260506172027 17 158 0.0 4.8 0.00 0.00 0.00 63 1021.5
20260506171525 16 149 6.4 6.4 0.00 0.00 0.00 63 1021.5
20260506171022 16 176 4.8 9.7 0.00 0.00 0.00 64 1021.4
20260506170520 17 184 6.4 9.7 0.00 0.00 0.00 63 1021.5
20260506170018 16 173 3.2 9.7 0.00 0.00 0.00 65 1021.4
20260506165516 16 153 0.0 4.8 0.00 0.00 0.00 65 1021.6
20260506165011 17 227 3.2 4.8 0.00 0.00 0.00 63 1021.7
20260506164508 16 158 0.0 3.2 0.00 0.00 0.00 65 1021.6
20260506164006 16 144 1.6 4.8 0.00 0.00 0.00 66 1021.6
20260506163501 16 153 3.2 6.4 0.00 0.00 0.00 65 1021.5
20260506162956 15 179 4.8 6.4 0.00 0.00 0.00 66 1021.7
20260506162454 16 161 1.6 3.2 0.00 0.00 0.00 68 1021.5
20260506161951 15 165 1.6 4.8 0.00 0.00 0.00 68 1021.8
20260506161449 15 154 3.2 6.4 0.00 0.00 0.00 69 1021.4
20260506160946 15 178 3.2 4.8 0.00 0.00 0.00 71 1021.7
20260506160443 15 140 3.2 6.4 0.00 0.00 0.00 71 1021.5
20260506155940 15 170 4.8 9.7 0.00 0.00 0.00 70 1021.5
20260506155438 15 171 4.8 6.4 0.00 0.00 0.00 72 1021.5
20260506153605 14 154 0.0 1.6 0.00 0.00 0.00 74 1021.4
20260506153102 14 155 0.0 3.2 0.00 0.00 0.00 74 1021.5
20260506152559 15 169 1.6 3.2 0.00 0.00 0.00 75 1021.5
20260506152057 14 168 0.0 3.2 0.00 0.00 0.00 76 1021.5
20260506151555 14 162 3.2 4.8 0.00 0.00 0.00 76 1021.5
20260506151052 13 156 1.6 3.2 0.00 0.00 0.00 78 1021.6
20260506150548 13 155 1.6 3.2 0.00 0.00 0.00 78 1021.5
20260506150045 13 171 1.6 3.2 0.00 0.00 0.00 79 1021.5
20260506145542 13 153 0.0 1.6 0.00 0.00 0.00 79 1021.6
20260506145039 13 155 1.6 3.2 0.00 0.00 0.00 80 1021.5
20260506144536 13 150 1.6 3.2 0.00 0.00 0.00 80 1021.6
20260506144033 13 161 1.6 4.8 0.00 0.00 0.00 81 1021.5
20260506143531 12 157 1.6 4.8 0.00 0.00 0.00 81 1021.4
20260506143029 13 141 3.2 3.2 0.00 0.00 0.00 81 1021.5
20260506142526 13 154 0.0 0.0 0.00 0.00 0.00 81 1021.2
20260506142024 13 159 0.0 0.0 0.00 0.00 0.00 82 1021.4
20260506141522 12 155 0.0 0.0 0.00 0.00 0.00 87 1021.5
20260506141020 11 154 0.0 0.0 0.00 0.00 0.00 89 1021.5
20260506140517 10 145 0.0 0.0 0.00 0.00 0.00 90 1021.6
20260506140014 10 156 0.0 0.0 0.00 0.00 0.00 91 1021.3
20260506135511 10 156 0.0 0.0 0.00 0.00 0.00 91 1021.4
20260506135007 9 156 0.0 0.0 0.00 0.00 0.00 92 1021.3
20260506134503 9 158 0.0 0.0 0.00 0.00 0.00 92 1021.3
20260506133959 9 157 0.0 0.0 0.00 0.00 0.00 92 1021.2
20260506133457 8 155 0.0 0.0 0.00 0.00 0.00 92 1021.1
20260506132954 8 156 0.0 0.0 0.00 0.00 0.00 92 1021.1
20260506132451 8 158 0.0 0.0 0.00 0.00 0.00 92 1021.1
20260506131948 8 157 0.0 0.0 0.00 0.00 0.00 92 1020.9
20260506131444 8 155 0.0 0.0 0.00 0.00 0.00 92 1021.3
20260506130942 8 153 0.0 0.0 0.00 0.00 0.00 92 1020.9
20260506130438 8 158 0.0 0.0 0.00 0.00 0.00 92 1020.8
20260506125936 8 158 0.0 0.0 0.00 0.00 0.00 92 1020.7
20260506125434 8 156 0.0 0.0 0.00 0.00 0.00 92 1020.7
20260506124932 8 157 0.0 0.0 0.00 0.00 0.00 92 1020.7
20260506124429 8 160 0.0 0.0 0.00 0.00 0.00 92 1020.5
20260506123927 8 158 0.0 0.0 0.00 0.00 0.00 92 1020.6
20260506123425 8 157 0.0 0.0 0.00 0.00 0.00 92 1020.6
20260506122922 8 155 0.0 0.0 0.00 0.00 0.00 92 1020.5
20260506122419 8 167 0.0 0.0 0.00 0.00 0.00 92 1020.6
20260506121917 8 157 0.0 0.0 0.00 0.00 0.00 91 1020.5
20260506121414 8 155 0.0 0.0 0.00 0.00 0.00 91 1020.4
20260506120911 8 157 0.0 0.0 0.00 0.00 0.00 91 1020.4
20260506120408 8 159 0.0 0.0 0.00 0.00 0.00 91 1020.4
20260506115905 8 155 0.0 0.0 0.00 0.00 0.00 91 1020.3
20260506115403 8 156 0.0 0.0 0.00 0.00 0.00 91 1020.5
20260506114901 8 157 0.0 0.0 0.00 0.00 0.00 91 1020.5
20260506114359 8 151 0.0 0.0 0.00 0.00 0.00 91 1020.6
20260506113858 8 158 0.0 0.0 0.00 0.00 0.00 91 1020.4
20260506113354 8 150 0.0 0.0 0.00 0.00 0.00 91 1020.6
20260506112851 8 154 0.0 0.0 0.00 0.00 0.00 91 1020.4
20260506112348 8 157 0.0 0.0 0.00 0.00 0.00 91 1020.4
20260506111845 8 157 0.0 0.0 0.00 0.00 0.00 91 1020.3
20260506111344 8 157 0.0 0.0 0.00 0.00 0.00 91 1020.4
20260506110841 8 156 0.0 0.0 0.00 0.00 0.00 91 1020.4
20260506110338 9 155 0.0 0.0 0.00 0.00 0.00 91 1020.5
20260506105835 8 156 0.0 0.0 0.00 0.00 0.00 91 1020.5
20260506105331 9 153 0.0 0.0 0.00 0.00 0.00 91 1020.3
20260506104829 9 156 0.0 0.0 0.00 0.00 0.00 91 1020.4
20260506104326 9 155 0.0 0.0 0.00 0.00 0.00 91 1020.4
20260506103824 9 157 0.0 0.0 0.00 0.00 0.00 91 1020.3
20260506103321 9 158 0.0 0.0 0.00 0.00 0.00 91 1020.5
20260506102818 9 156 0.0 0.0 0.00 0.00 0.00 91 1020.6
20260506102316 9 158 0.0 0.0 0.00 0.00 0.00 90 1020.5
20260506101813 9 156 0.0 0.0 0.00 0.00 0.00 90 1020.4
20260506101309 9 156 0.0 0.0 0.00 0.00 0.00 90 1020.3
20260506100807 9 158 0.0 0.0 0.00 0.00 0.00 90 1020.1
20260506100305 9 157 0.0 0.0 0.00 0.00 0.00 90 1020.4
20260506095804 9 157 0.0 0.0 0.00 0.00 0.00 90 1020.5
20260506095300 9 156 0.0 0.0 0.00 0.00 0.00 90 1020.5
20260506094756 9 151 0.0 0.0 0.00 0.00 0.00 90 1020.6
20260506094255 9 154 0.0 0.0 0.00 0.00 0.00 90 1020.4
20260506093753 9 156 0.0 0.0 0.00 0.00 0.00 90 1020.3
20260506093250 9 154 0.0 0.0 0.00 0.00 0.00 90 1020.3
20260506092748 10 158 0.0 0.0 0.00 0.00 0.00 89 1020.4
20260506092246 10 157 0.0 1.6 0.00 0.00 0.00 89 1020.3
20260506091743 10 157 1.6 1.6 0.00 0.00 0.00 90 1020.5
20260506091240 10 166 0.0 1.6 0.00 0.00 0.00 90 1020.3
20260506090738 9 165 0.0 1.6 0.00 0.00 0.00 90 1020.6
20260506090234 9 156 0.0 0.0 0.00 0.00 0.00 90 1020.7
20260506085731 9 155 0.0 0.0 0.00 0.00 0.00 89 1020.6
20260506085228 10 154 0.0 0.0 0.00 0.00 0.00 89 1020.6
20260506084724 10 157 0.0 0.0 0.00 0.00 0.00 89 1020.5
20260506084220 10 154 0.0 0.0 0.00 0.00 0.00 89 1020.6
20260506083718 10 156 0.0 0.0 0.00 0.00 0.00 89 1020.8
20260506083216 10 156 0.0 0.0 0.00 0.00 0.00 89 1020.8
20260506082713 10 156 0.0 0.0 0.00 0.00 0.00 89 1020.8
20260506082208 10 160 0.0 0.0 0.00 0.00 0.00 89 1020.7
20260506081706 10 157 0.0 1.6 0.00 0.00 0.00 89 1020.9
20260506081203 10 161 0.0 0.0 0.00 0.00 0.00 88 1020.8
20260506080701 10 156 0.0 0.0 0.00 0.00 0.00 88 1020.8
20260506080158 10 158 0.0 1.6 0.00 0.00 0.00 88 1020.8
20260506073142 11 158 0.0 0.0 0.00 0.00 0.00 86 1020.7
20260506072638 11 156 0.0 0.0 0.00 0.00 0.00 85 1020.7
20260506072136 11 158 0.0 0.0 0.00 0.00 0.00 85 1021.0
20260506071633 11 156 0.0 0.0 0.00 0.00 0.00 84 1020.7
20260506071131 11 157 0.0 0.0 0.00 0.00 0.00 84 1020.7
20260506070628 11 160 0.0 0.0 0.00 0.00 0.00 83 1020.9
20260506070125 11 170 1.6 1.6 0.00 0.00 0.00 83 1020.7
20260506062103 12 176 1.6 3.2 0.00 0.48 0.48 79 1020.1
20260506061558 12 168 1.6 3.2 0.00 0.48 0.48 79 1020.3
20260506061056 12 159 0.0 1.6 0.00 0.48 0.48 78 1020.3
20260506060554 12 166 1.6 1.6 0.00 0.48 0.48 78 1020.1
20260506051023 13 161 0.0 3.2 0.00 0.48 0.48 75 1019.9
20260506050521 13 182 1.6 3.2 0.00 0.48 0.48 74 1020.0
20260506045011 13 188 3.2 4.8 0.00 0.48 0.48 72 1019.6
20260506044509 13 167 0.0 6.4 0.00 0.48 0.48 71 1019.6
20260506044006 13 169 1.6 3.2 0.00 0.48 0.48 70 1019.4
20260506043502 13 164 1.6 1.6 0.00 0.48 0.48 69 1019.3
20260506043001 13 161 0.0 0.0 0.00 0.48 0.48 69 1019.2
20260506042500 13 191 3.2 3.2 0.00 0.48 0.48 68 1019.1
20260506041957 13 164 1.6 3.2 0.00 0.48 0.48 68 1019.0
20260506041455 13 166 1.6 1.6 0.00 0.48 0.48 68 1019.1
20260506040952 13 181 1.6 3.2 0.00 0.48 0.48 68 1018.9
20260506040450 13 197 1.6 4.8 0.00 0.48 0.48 67 1018.6
20260506035946 14 159 0.0 1.6 0.00 0.48 0.48 67 1019.0
20260506035443 14 183 4.8 4.8 0.00 0.48 0.48 67 1018.8
20260506034939 14 177 1.6 3.2 0.00 0.48 0.48 66 1018.9
20260506034437 14 162 0.0 3.2 0.00 0.48 0.48 66 1018.7
20260506033934 14 173 1.6 3.2 0.00 0.48 0.48 65 1018.7
20260506033431 14 205 3.2 4.8 0.00 0.48 0.48 65 1018.5
20260506032928 14 169 1.6 3.2 0.00 0.48 0.48 65 1018.4
20260506032425 15 171 1.6 6.4 0.00 0.48 0.48 65 1017.9
20260506031921 15 222 3.2 4.8 0.00 0.48 0.48 64 1018.3
20260506031419 15 165 1.6 6.4 0.00 0.48 0.48 65 1018.2
20260506030916 15 201 4.8 6.4 0.00 0.48 0.48 64 1018.2